Miscellaneous Local Product
Issued by NWS North Platte, NE

Home | Current Version | Previous Version | Graphics & Text | Print | Product List | Glossary On
Versions: 1 2 3 4 5 6 7 8 9 10 11 12 13 14 15 16 17 18 19 20 21 22 23 24 25 26 27 28 29 30 31 32 33 34 35 36 37 38 39 40 41 42 43 44 45 46 47 48 49 50
000
AXUS43 KLBF 291310
MISLBF


WESTERN AND NORTH CENTRAL NEBRASKA HOURLY WEATHER ROUNDUP
NATIONAL WEATHER SERVICE NORTH PLATTE NE
800 AM CDT MON SEP 29 2014

***STATIONS NOT REPORTING VARIABLES SUCH AS SKY/WEATHER OR
PRESSURE ARE PROVIDED BY THE NEBRASKA DEPARTMENT OF
ROADS...RAWS...AND APRS NETWORKS...AND ARE NOT UNDER
NATIONAL WEATHER SERVICE QUALITY CONTROL***

...OBSERVATIONS IN AND NEAR THE EASTERN PANHANDLE OF NEBRASKA...

CITY           SKY/WX    TMP DP  RH WIND       PRES   REMARKS
PINE RIDGE     FOG       51  51 100 E10       30.06S VSB 1
CHADRON        LGT RAIN  53  52  96 N10       30.06S
ALLIANCE       LGT RAIN  55  53  93 E6        30.02S FOG
SIDNEY         LGT RAIN  57  54  89 E5        30.02S
WHITECLAY        N/A     51  49  93 CALM        N/A
RUSHVILLE        N/A     51  50  97 E14         N/A
LISCO            N/A     62  55  78 E3          N/A
BIG SPRINGS      N/A     59  54  84 SE5         N/A
$$

...OBSERVATIONS IN NORTH CENTRAL NEBRASKA...

CITY           SKY/WX    TMP DP  RH WIND       PRES   REMARKS
VALENTINE      FOG       53  52  96 NE10      30.08R VSB 1/4
THEDFORD       FOG       53  52  98 E3        30.07R VSB 1/4
AINSWORTH      DRZL/FOG  55  55 100 E7        30.08R VSB<1/4
O`NEILL        FOG       55  55 100 NE7       30.08R VSB<1/4
ORD            CLEAR     53  51  93 CALM      30.04S
BROKEN BOW     CLEAR     52  49  89 CALM      30.05S
SPRINGVIEW       N/A     54  53  95 NE6         N/A
ROSE             N/A     56  55  99 N7          N/A
NEWPORT          N/A     56  56  99 NE8         N/A
SARGENT          N/A     55  54  97 CALM        N/A
COMSTOCK         N/A     63  57  81 CALM        N/A
CHAMBERS         N/A     57  55  95 E3          N/A
EWING            N/A     58  56  95 CALM        N/A
$$

...OBSERVATIONS IN SOUTHWEST NEBRASKA AND FAR NORTHEAST COLORADO...

CITY           SKY/WX    TMP DP  RH WIND       PRES   REMARKS
WRAY           FAIR      59  53  79 SE6       30.01R
IMPERIAL       MOCLDY    60  53  77 SE10      30.00S
OGALLALA       CLOUDY    61  55  82 E3        30.02R
NORTH PLATTE   CLEAR     57  52  83 E12       30.03R
MCCOOK         CLEAR     58  53  84 SE6       30.02F
LEXINGTON      CLEAR     54  52  94 SE3       30.05S
PAXTON           N/A     58  53  85 SE6         N/A
SUTHERLAND       N/A     53  50  89 SE6         N/A
BRADY            N/A     55  51  86 CALM        N/A
GOTHENBURG       N/A     56  49  79 E3          N/A
CALLAWAY         N/A     54  52  94 SE224       N/A
$$

...SOME WEATHER OBSERVATIONS FROM AROUND THE REGION...

CITY           SKY/WX    TMP DP  RH WIND       PRES   REMARKS
DENVER         CLOUDY    53  50  89 SE3       30.05S
LARAMIE        MOCLDY    44  41  89 NW8       30.09F
CHEYENNE       CLOUDY    48  46  93 NE6       30.05F
SCOTTSBLUFF    TSTM      56  56 100 E9        30.06R FOG
RAPID CITY     LGT RAIN  49  48  97 E3        30.14R FOG
PIERRE         CLOUDY    52  48  86 E14       30.10S
WINNER         FOG       54  53  97 E10       30.09R VSB 1/2
SIOUX FALLS    CLOUDY    57  55  93 NE12      30.09R
OMAHA          PTCLDY    60  56  86 N7        30.08R
GRAND ISLAND   CLEAR     57  53  86 CALM      30.06S
KANSAS CITY    MOCLDY    62  59  90 SW3       30.08R
WICHITA        PTCLDY    61  58  90 SE3       30.08R
HAYS           CLEAR     57  50  77 SE5       30.07R
LIBERAL        CLEAR     55  48  76 SE7       30.09R
GOODLAND       CLEAR     59  54  83 S15       30.02R
$$



USA.gov is the U.S. government's official web portal to all federal, state and local government web resources and services.